This is the latest recevied weather packets stored in our database for station/object YM2KA-13. If no packets are shown the sender has not sent any weather packets the latest 10 day(s).
| Time | Temp. | Humidity | Pressure | Rain* | Wind** | Luminosity | Snow |
|---|---|---|---|---|---|---|---|
| 1788342078 | 27.22° C | 32% | 1011.2 hPa | 0 mm | - | - | - |
| 1788341895 | 27.22° C | 33% | 1011.2 hPa | 0 mm | - | - | - |
| 1788341482 | 27.22° C | 34% | 1011.2 hPa | 0 mm | - | - | - |
| 1788340992 | 26.67° C | 35% | 1011.4 hPa | 0 mm | - | - | - |
| 1788340880 | 26.67° C | 35% | 1011.3 hPa | 0 mm | - | - | - |
| 1788340282 | 26.67° C | 34% | 1011.4 hPa | 0 mm | - | - | - |
| 1788340089 | 26.67° C | 34% | 1011.4 hPa | 0 mm | - | - | - |
| 1788339682 | 27.22° C | 36% | 1011.5 hPa | 0 mm | - | - | - |
| 1788339195 | 26.67° C | 37% | 1011.5 hPa | 0 mm | - | - | - |
| 1788339073 | 26.11° C | 37% | 1011.6 hPa | 0 mm | - | - | - |
| 1788338475 | 26.11° C | 38% | 1011.6 hPa | 0 mm | - | - | - |
| 1788338292 | 26.11° C | 38% | 1011.6 hPa | 0 mm | - | - | - |
| 1788337875 | 25.56° C | 39% | 1011.7 hPa | 0 mm | - | - | - |
| 1788337388 | 26.11° C | 39% | 1011.7 hPa | 0 mm | - | - | - |
| 1788337276 | 25.56° C | 39% | 1011.7 hPa | 0 mm | - | - | - |
| 1788336678 | 25° C | 40% | 1011.7 hPa | 0 mm | - | - | - |
| 1788336495 | 25° C | 39% | 1011.8 hPa | 0 mm | - | - | - |
| 1788336078 | 25.56° C | 39% | 1011.7 hPa | 0 mm | - | - | - |
| 1788335592 | 25° C | 39% | 1011.7 hPa | 0 mm | - | - | - |
| 1788335480 | 25° C | 39% | 1011.7 hPa | 0 mm | - | - | - |
| 1788334881 | 25° C | 45% | 1011.8 hPa | 0 mm | - | - | - |
| 1788334688 | 25° C | 45% | 1011.8 hPa | 0 mm | - | - | - |
| 1788334282 | 24.44° C | 46% | 1011.8 hPa | 0 mm | - | - | - |
| 1788333795 | 23.89° C | 47% | 1011.9 hPa | 0 mm | - | - | - |
| 1788333673 | 23.89° C | 46% | 1011.8 hPa | 0 mm | - | - | - |
* Rain latest hour (hover to see other rain measurements)
** Current wind speed in m/s (hover to see current wind gust speed)